Saginaw, MI

7:35 AM EDT on August 21, 2017 (GMT -0400)
MBS International

Weather History for KMBS - January, 2014

Change the Weather History Date:

Friday, January 17, 2014

  Actual Average Record
Temperature  
Mean Temperature 26 °F 22 °F  
Max Temperature 32 °F 29 °F 44 °F (2015)
Min Temperature 20 °F 15 °F -6 °F (1997)
Degree Days  
Heating Degree Days 39    
Month to date heating degree days 777  
Since 1 July heating degree days 3481  
Cooling Degree Days 0    
Month to date cooling degree days 0  
Year to date cooling degree days 0  
Moisture  
Dew Point 21 °F    
Average Humidity 80    
Maximum Humidity 92    
Minimum Humidity 68    
Precipitation  
Precipitation 0.08 in 0.06 in 0.60 in (2017)
Month to date precipitation 1.66 1.04  
Year to date precipitation 1.66 1.04  
Snow  
Snow 1.20 in - - ()
Month to date snowfall 11.9  
Since 1 July snowfall 32.4  
Snow Depth 9.00 in    
Sea Level Pressure  
Sea Level Pressure 29.71 in    
Wind  
Wind Speed 14 mph (SW)    
Max Wind Speed 22 mph    
Max Gust Speed 29 mph    
Visibility 6 miles    
Events Snow    
T = Trace of Precipitation, MM = Missing Value Source: NWS Daily Summary

Daily Weather History Graph

Daily Weather History Graph

Search for Another Location

Airport or City:

Trip Planner

Search our weather history database for the weather conditions in past years. The results will help you decide how hot, cold, wet, or windy it might be!

Date:

Astronomy

Jan. 17, 2014 Rise Set
Actual Time 8:05 AM EST 5:28 PM EST
Civil Twilight 7:33 AM EST 5:59 PM EST
Nautical Twilight 6:58 AM EST 6:34 PM EST
Astronomical Twilight 6:24 AM EST 7:09 PM EST
Moon 7:18 PM EST (1/17) 8:28 AM EST (1/17)
Length of Visible Light 10h 26m
Length of Day
9h 22m
Full, 98% of the Moon is Illuminated
Jan 17
Full
Jan 24
Last Quarter
Jan 30
New
Feb 6
First Quarter
Feb 14
Full

Hourly Weather History & Observations

Time (EST) Temp. Windchill Dew Point Humidity Pressure Visibility Wind Dir Wind Speed Gust Speed Precip Events Conditions
12:14 AM 26.6 °F 17.5 °F 24.8 °F 93% 29.58 in 3.0 mi South 9.2 mph - 0.00 in Snow Light Snow
12:30 AM 26.6 °F 16.2 °F 24.8 °F 93% 29.57 in 4.0 mi South 11.5 mph - 0.00 in   Overcast
12:51 AM 28.4 °F 18.5 °F 24.8 °F 86% 29.57 in 2.0 mi South 11.5 mph - 0.00 in Snow Light Snow
12:53 AM 28.0 °F 19.3 °F 24.1 °F 85% 29.60 in 2.0 mi South 9.2 mph - 0.00 in Snow Light Snow
1:11 AM 28.4 °F 19.1 °F 24.8 °F 86% 29.56 in 3.0 mi South 10.4 mph - 0.00 in Snow Light Snow
1:53 AM 28.0 °F 20.0 °F 25.0 °F 88% 29.59 in 2.5 mi South 8.1 mph - 0.00 in Snow Light Snow
2:20 AM 28.4 °F 21.2 °F 24.8 °F 86% 29.56 in 3.0 mi South 6.9 mph - 0.00 in Snow Light Snow
2:53 AM 28.9 °F 20.4 °F 26.1 °F 89% 29.60 in 7.0 mi South 9.2 mph - 0.00 in   Overcast
3:35 AM 28.4 °F 22.2 °F 26.6 °F 93% 29.57 in 6.0 mi South 5.8 mph - 0.00 in Snow Light Snow
3:53 AM 28.9 °F 21.1 °F 26.1 °F 89% 29.60 in 3.0 mi South 8.1 mph - 0.00 in Snow Light Snow
4:53 AM 30.9 °F 22.2 °F 27.0 °F 85% 29.61 in 5.0 mi SW 10.4 mph - 0.00 in Snow Light Snow
5:08 AM 30.2 °F 22.6 °F 28.4 °F 93% 29.59 in 2.0 mi SW 8.1 mph - 0.00 in Snow Light Snow
5:21 AM 32.0 °F 23.0 °F 28.4 °F 87% 29.59 in 3.0 mi WSW 11.5 mph - 0.00 in Snow Light Snow
5:34 AM 30.2 °F 18.9 °F 26.6 °F 86% 29.60 in 2.5 mi WSW 16.1 mph 24.2 mph 0.00 in Snow Light Snow
5:53 AM 30.0 °F 18.7 °F 26.1 °F 85% 29.63 in 2.5 mi WSW 16.1 mph - 0.00 in Snow Light Snow
6:03 AM 28.4 °F 16.6 °F 24.8 °F 86% 29.62 in 3.0 mi WSW 16.1 mph - 0.00 in Snow Light Snow
6:16 AM 28.4 °F 15.1 °F 24.8 °F 86% 29.63 in 1.8 mi WSW 20.7 mph 26.5 mph 0.00 in Snow Light Snow
6:31 AM 28.4 °F 18.0 °F 24.8 °F 86% 29.64 in 1.2 mi WSW 12.7 mph - 0.00 in Snow Light Snow
6:53 AM 28.0 °F 14.9 °F 23.0 °F 81% 29.67 in 6.0 mi SW 19.6 mph 28.8 mph 0.00 in   Haze
8:50 AM 24.8 °F 10.7 °F 19.4 °F 80% 29.71 in 9.0 mi WSW 19.6 mph 25.3 mph N/A   Overcast
8:53 AM 25.0 °F 11.3 °F 19.0 °F 78% 29.74 in 8.0 mi West 18.4 mph 25.3 mph N/A   Overcast
9:14 AM 24.8 °F 11.1 °F 17.6 °F 74% 29.71 in 9.0 mi WSW 18.4 mph 24.2 mph N/A   Overcast
9:53 AM 24.1 °F 10.6 °F 17.1 °F 75% 29.76 in 10.0 mi WSW 17.3 mph 25.3 mph N/A   Mostly Cloudy
10:53 AM 24.1 °F 11.5 °F 16.0 °F 71% 29.78 in 10.0 mi SW 15.0 mph - N/A   Clear
11:53 AM 24.1 °F 9.4 °F 16.0 °F 71% 29.78 in 10.0 mi SW 20.7 mph - N/A   Partly Cloudy
12:53 PM 24.1 °F 11.5 °F 16.0 °F 71% 29.78 in 10.0 mi WSW 15.0 mph - N/A   Clear
1:53 PM 25.0 °F 12.6 °F 16.0 °F 69% 29.78 in 10.0 mi SW 15.0 mph - N/A   Clear
2:53 PM 25.0 °F 13.1 °F 16.0 °F 69% 29.79 in 10.0 mi WSW 13.8 mph - N/A   Clear
3:53 PM 24.1 °F 12.5 °F 16.0 °F 71% 29.81 in 10.0 mi West 12.7 mph - N/A   Scattered Clouds
4:04 PM 24.8 °F 13.4 °F 15.8 °F 69% 29.79 in 10.0 mi SW 12.7 mph - N/A   Mostly Cloudy
4:53 PM 23.0 °F 9.6 °F 15.1 °F 72% 29.84 in 10.0 mi West 16.1 mph - N/A   Mostly Cloudy
5:53 PM 23.0 °F 11.1 °F 15.1 °F 72% 29.86 in 10.0 mi WSW 12.7 mph - N/A   Overcast
6:53 PM 21.9 °F 9.2 °F 15.1 °F 75% 29.87 in 10.0 mi WSW 13.8 mph 20.7 mph N/A   Overcast
7:53 PM 21.0 °F 8.1 °F 14.0 °F 74% 29.89 in 10.0 mi WSW 13.8 mph - N/A   Overcast
8:53 PM 21.0 °F 6.6 °F 12.9 °F 71% 29.89 in 10.0 mi West 17.3 mph - N/A   Overcast
9:53 PM 21.0 °F 8.1 °F 12.9 °F 71% 29.90 in 10.0 mi WSW 13.8 mph - N/A   Overcast
10:53 PM 21.0 °F 9.9 °F 14.0 °F 74% 29.90 in 10.0 mi WSW 10.4 mph - N/A   Overcast
11:53 PM 21.9 °F 10.4 °F 14.0 °F 72% 29.88 in 10.0 mi SW 11.5 mph - N/A   Overcast